When you browse on this site, cookies collect data to enhance your experience and personalize the content and advertising you see.
Visit our Privacy Policy to learn more. By continuing to use the site, you agree to this use of cookies and data.
  • In United Kingdom
  • List of Countries
  • For 7 days
  • Water Temperature
  • Weather Map
  • Weather Widgets
  • user-avatar
    Login

    Hourly Weather Klagenfurt

    Today, 28 May, Thursday

    Time Temperature Precipitation Wind Pressure Humidity
    00:00 +8°C° 0 mm 1 mps 697 mmHg 79%
    01:00 +7°C° 0 mm 1 mps 697 mmHg 81%
    02:00 +7°C° 0 mm 1 mps 697 mmHg 81%
    03:00 +7°C° 0 mm 1 mps 696 mmHg 82%
    04:00 +6°C° 0 mm 1 mps 696 mmHg 83%
    05:00 +8°C° 0 mm 1 mps 696 mmHg 77%
    06:00 +10°C° 0 mm 1 mps 696 mmHg 70%
    07:00 +11°C° 0 mm 0 mps 696 mmHg 64%
    08:00 +13°C° 0 mm 0 mps 696 mmHg 57%
    09:00 +16°C° 0 mm 1 mps 696 mmHg 50%
    10:00 +19°C° 0 mm 1 mps 697 mmHg 43%
    11:00 +20°C° 0.1 mm 1 mps 696 mmHg 42%
    12:00 +21°C° 0.1 mm 1 mps 696 mmHg 42%
    13:00 +21°C° 0.1 mm 1 mps 696 mmHg 41%
    14:00 +19°C° 0.6 mm 1 mps 695 mmHg 54%
    15:00 +18°C° 0.6 mm 1 mps 695 mmHg 67%
    16:00 +15°C° 0.6 mm 1 mps 694 mmHg 80%
    17:00 +14°C° 0.6 mm 1 mps 694 mmHg 82%
    18:00 +13°C° 0.6 mm 1 mps 694 mmHg 85%
    19:00 +12°C° 0.6 mm 1 mps 694 mmHg 87%
    20:00 +10°C° 0.1 mm 1 mps 694 mmHg 88%
    21:00 +9°C° 0.1 mm 1 mps 694 mmHg 89%
    22:00 +7°C° 0.1 mm 1 mps 694 mmHg 90%
    23:00 +7°C° 0 mm 1 mps 694 mmHg 91%

    Tomorrow, 29 May, Friday

    Time Temperature Precipitation Wind Pressure Humidity
    00:00 +6°C° 0 mm 1 mps 694 mmHg 92%
    01:00 +6°C° 0 mm 1 mps 693 mmHg 93%
    02:00 +5°C° 0 mm 1 mps 693 mmHg 93%
    03:00 +5°C° 0 mm 1 mps 693 mmHg 93%
    04:00 +4°C° 0 mm 1 mps 693 mmHg 93%
    05:00 +6°C° 0 mm 1 mps 693 mmHg 89%
    06:00 +7°C° 0 mm 1 mps 694 mmHg 85%
    07:00 +9°C° 0 mm 1 mps 694 mmHg 82%
    08:00 +10°C° 0.2 mm 1 mps 694 mmHg 77%
    09:00 +10°C° 0.2 mm 2 mps 694 mmHg 71%
    10:00 +12°C° 0.2 mm 2 mps 694 mmHg 66%
    11:00 +13°C° 0.1 mm 2 mps 694 mmHg 64%
    12:00 +14°C° 0.1 mm 2 mps 694 mmHg 62%
    13:00 +15°C° 0.1 mm 1 mps 693 mmHg 59%
    14:00 +15°C° 0.3 mm 2 mps 693 mmHg 61%
    15:00 +15°C° 0.3 mm 2 mps 692 mmHg 63%
    16:00 +15°C° 0.3 mm 2 mps 692 mmHg 66%
    17:00 +14°C° 0.3 mm 1 mps 692 mmHg 72%
    18:00 +12°C° 0.3 mm 1 mps 691 mmHg 78%
    19:00 +10°C° 0.3 mm 0 mps 691 mmHg 85%
    20:00 +9°C° 0.1 mm 0 mps 691 mmHg 86%
    21:00 +8°C° 0.1 mm 0 mps 691 mmHg 88%
    22:00 +7°C° 0.1 mm 0 mps 692 mmHg 89%
    23:00 +6°C° 0 mm 0 mps 691 mmHg 91%

    Day after tomorrow, 30 May, Saturday

    Time Temperature Precipitation Wind Pressure Humidity
    00:00 +6°C° 0 mm 0 mps 691 mmHg 92%
    01:00 +6°C° 0 mm 0 mps 691 mmHg 93%
    02:00 +5°C° 0 mm 0 mps 691 mmHg 94%
    03:00 +5°C° 0 mm 0 mps 691 mmHg 95%
    04:00 +5°C° 0 mm 1 mps 690 mmHg 96%
    05:00 +7°C° 0 mm 1 mps 691 mmHg 92%
    06:00 +8°C° 0 mm 1 mps 691 mmHg 89%
    07:00 +10°C° 0 mm 1 mps 691 mmHg 85%
    08:00 +12°C° 0.2 mm 1 mps 691 mmHg 77%
    09:00 +13°C° 0.2 mm 1 mps 691 mmHg 69%
    10:00 +15°C° 0.2 mm 1 mps 691 mmHg 61%
    11:00 +15°C° 0.4 mm 1 mps 691 mmHg 62%
    12:00 +15°C° 0.4 mm 1 mps 691 mmHg 63%
    13:00 +15°C° 0.4 mm 2 mps 691 mmHg 63%
    14:00 +15°C° 0.5 mm 1 mps 691 mmHg 65%
    15:00 +15°C° 0.5 mm 1 mps 691 mmHg 67%
    16:00 +14°C° 0.5 mm 1 mps 690 mmHg 69%
    17:00 +13°C° 0.4 mm 1 mps 690 mmHg 75%
    18:00 +12°C° 0.4 mm 1 mps 690 mmHg 81%
    19:00 +10°C° 0.4 mm 0 mps 690 mmHg 87%
    20:00 +9°C° 0.3 mm 0 mps 690 mmHg 88%
    21:00 +9°C° 0.3 mm 0 mps 691 mmHg 90%
    22:00 +8°C° 0.3 mm 0 mps 691 mmHg 91%
    23:00 +8°C° 0.1 mm 0 mps 691 mmHg 92%

    31 May, Sunday

    Time Temperature Precipitation Wind Pressure Humidity
    00:00 +7°C° 0.1 mm 0 mps 691 mmHg 92%
    01:00 +7°C° 0.1 mm 0 mps 691 mmHg 92%
    02:00 +7°C° 0 mm 0 mps 691 mmHg 93%
    03:00 +6°C° 0 mm 0 mps 690 mmHg 93%
    04:00 +6°C° 0 mm 0 mps 690 mmHg 93%
    05:00 +7°C° 0 mm 0 mps 690 mmHg 90%
    06:00 +8°C° 0 mm 0 mps 690 mmHg 87%
    07:00 +9°C° 0 mm 0 mps 690 mmHg 84%
    08:00 +12°C° 0 mm 1 mps 691 mmHg 73%
    09:00 +14°C° 0 mm 1 mps 691 mmHg 62%
    10:00 +16°C° 0 mm 1 mps 691 mmHg 51%
    11:00 +19°C° 0 mm 1 mps 691 mmHg 47%
    12:00 +20°C° 0 mm 1 mps 691 mmHg 43%
    13:00 +21°C° 0 mm 1 mps 691 mmHg 40%
    14:00 +20°C° 0.1 mm 1 mps 691 mmHg 42%
    15:00 +20°C° 0.1 mm 1 mps 690 mmHg 44%
    16:00 +19°C° 0.1 mm 1 mps 690 mmHg 46%
    17:00 +18°C° 0.1 mm 1 mps 690 mmHg 56%
    18:00 +15°C° 0.1 mm 1 mps 690 mmHg 66%
    19:00 +12°C° 0.1 mm 0 mps 689 mmHg 77%
    20:00 +11°C° 0 mm 0 mps 689 mmHg 78%
    21:00 +10°C° 0 mm 0 mps 690 mmHg 79%
    22:00 +10°C° 0 mm 0 mps 690 mmHg 80%
    23:00 +10°C° 0 mm 1 mps 690 mmHg 81%

    1 June, Monday

    Time Temperature Precipitation Wind Pressure Humidity
    00:00 +10°C° 0 mm 1 mps 689 mmHg 82%
    01:00 +9°C° 0 mm 1 mps 689 mmHg 83%
    02:00 +9°C° 0.2 mm 1 mps 689 mmHg 85%
    03:00 +9°C° 0.2 mm 1 mps 689 mmHg 87%
    04:00 +9°C° 0.2 mm 1 mps 689 mmHg 90%
    05:00 +10°C° 0.2 mm 1 mps 689 mmHg 90%
    06:00 +10°C° 0.2 mm 1 mps 689 mmHg 90%
    07:00 +11°C° 0.2 mm 1 mps 689 mmHg 90%
    08:00 +12°C° 0.1 mm 1 mps 690 mmHg 86%
    09:00 +13°C° 0.1 mm 1 mps 690 mmHg 82%
    10:00 +14°C° 0.1 mm 1 mps 690 mmHg 79%
    11:00 +15°C° 0.2 mm 1 mps 690 mmHg 76%
    12:00 +16°C° 0.2 mm 1 mps 690 mmHg 73%
    13:00 +18°C° 0.2 mm 1 mps 690 mmHg 70%
    14:00 +19°C° 0.2 mm 1 mps 690 mmHg 65%
    15:00 +20°C° 0.2 mm 1 mps 690 mmHg 60%
    16:00 +21°C° 0.2 mm 1 mps 690 mmHg 55%
    17:00 +19°C° 0.3 mm 1 mps 690 mmHg 65%
    18:00 +18°C° 0.3 mm 1 mps 689 mmHg 75%
    19:00 +14°C° 0.3 mm 0 mps 689 mmHg 85%
    20:00 +13°C° 0.1 mm 0 mps 689 mmHg 88%
    21:00 +11°C° 0.1 mm 0 mps 689 mmHg 90%
    22:00 +11°C° 0.1 mm 1 mps 689 mmHg 92%
    23:00 +10°C° 0 mm 0 mps 689 mmHg 93%

    2 June, Tuesday

    Time Temperature Precipitation Wind Pressure Humidity
    00:00 +10°C° 0 mm 0 mps 689 mmHg 94%
    01:00 +9°C° 0 mm 0 mps 689 mmHg 94%
    02:00 +9°C° 0 mm 0 mps 689 mmHg 95%
    03:00 +9°C° 0 mm 0 mps 689 mmHg 95%
    04:00 +8°C° 0 mm 0 mps 688 mmHg 95%
    05:00 +10°C° 0 mm 0 mps 689 mmHg 93%
    06:00 +11°C° 0 mm 0 mps 689 mmHg 91%
    07:00 +13°C° 0 mm 0 mps 689 mmHg 89%
    08:00 +15°C° 0.1 mm 1 mps 689 mmHg 81%
    09:00 +18°C° 0.1 mm 1 mps 690 mmHg 73%
    10:00 +19°C° 0.1 mm 1 mps 690 mmHg 66%
    11:00 +20°C° 0.3 mm 1 mps 690 mmHg 66%
    12:00 +20°C° 0.3 mm 1 mps 689 mmHg 66%
    13:00 +19°C° 0.3 mm 2 mps 689 mmHg 66%
    14:00 +19°C° 0.6 mm 2 mps 689 mmHg 68%
    15:00 +18°C° 0.6 mm 2 mps 688 mmHg 71%
    16:00 +18°C° 0.6 mm 2 mps 688 mmHg 74%
    17:00 +18°C° 0.4 mm 1 mps 688 mmHg 79%
    18:00 +16°C° 0.4 mm 1 mps 688 mmHg 84%
    19:00 +14°C° 0.4 mm 1 mps 687 mmHg 90%
    20:00 +13°C° 0 mm 1 mps 687 mmHg 91%
    21:00 +12°C° 0 mm 1 mps 687 mmHg 92%
    22:00 +11°C° 0 mm 1 mps 687 mmHg 93%
    23:00 +11°C° 0 mm 1 mps 687 mmHg 92%
    Show more